Location: Aytr�
(46.1357°N, 1.1145°W)
Time: 12:32:31
(UTC+00:00)

Gbstr 26 Del rocket - Pass Details

Date: 03 March 2021
Orbit: 492 x 1263 km, 51.8° (Epoch: 20 April)

Event Time Altitude Azimuth Distance (km) Brightness Sun altitude
Rises 19:52:47 0° 285° (WNW) 2,862 8.0 -21.3°
Reaches altitude 10° 19:54:58 10° 292° (WNW) 2,049 6.9 -21.7°
Maximum altitude 19:59:30 45° 6° (N) 1,005 4.1 -22.4°
Enters shadow 20:01:01 36° 48° (NE) 1,218 4.2 -22.7°
